Weather History for Ft Lauderdale, FL

Change the Weather History Date:

Tuesday, July 9, 2013

  Actual Average Record
Temperature  
Mean Temperature 80 °F 84 °F  
Max Temperature 85 °F 90 °F 97 °F (1963)
Min Temperature 75 °F 78 °F 64 °F (1975)
Degree Days  
Heating Degree Days 0 0  
Month to date heating degree days 0 0  
Since 1 June heating degree days 0 0  
Since 1 July heating degree days 0 0  
Cooling Degree Days 15 19  
Month to date cooling degree days 159 171  
Year to date cooling degree days 2099 2132  
Since 1 June cooling degree days 703 714  
Growing Degree Days 30 (Base 50)    
Moisture  
Dew Point 72 °F    
Average Humidity 78    
Maximum Humidity 94    
Minimum Humidity 61    
Precipitation  
Precipitation 0.20 in 0.21 in 4.19 in (2005)
Month to date precipitation 1.32 1.99  
Year to date precipitation 40.83 29.64  
Snow  
Snow 0.00 in - - ()
Month to date snowfall 0.0  
Since 1 June snowfall 0.0  
Since 1 July snowfall 0.0  
Snow Depth 0.00 in    
Sea Level Pressure  
Sea Level Pressure 30.10 in    
Wind  
Wind Speed 5 mph (East)    
Max Wind Speed 20 mph    
Max Gust Speed 23 mph    
Visibility 9 miles    
Events Rain    
T = Trace of Precipitation, MM = Missing Value Source: NWS Daily Summary

Daily Weather History Graph

Daily Weather History Graph

Search for Another Location

Airport:

Trip Planner

Search our weather history database for the weather conditions in past years. The results will help you decide how hot, cold, wet, or windy it might be!

Date:

Astronomy

Jul. 09, 2013 Rise Set
Actual Time 6:35 AM EDT 8:16 PM EDT
Civil Twilight 6:09 AM EDT 8:41 PM EDT
Nautical Twilight 5:38 AM EDT 9:12 PM EDT
Astronomical Twilight 5:06 AM EDT 9:45 PM EDT
Moon 7:46 AM EDT (7/9) 9:07 PM EDT (7/9)
Length of Visible Light 14h 32m
Length of Day
13h 40m
New Moon, 2% of the Moon is Illuminated
Jul 9
New Moon
Jul 15
First Quarter
Jul 22
Full
Jul 29
Last Quarter
Aug 6
New

Hourly Weather History & Observations

Time (EDT) Temp. Heat Index Dew Point Humidity Pressure Visibility Wind Dir Wind Speed Gust Speed Precip Events Conditions
12:53 AM 80.1 °F 83.8 °F 72.0 °F 76% 30.13 in 10.0 mi ENE 4.6 mph - N/A   Partly Cloudy
1:53 AM 78.1 °F - 73.0 °F 84% 30.12 in 10.0 mi Calm Calm - 0.03 in   Scattered Clouds
2:53 AM 75.9 °F - 73.9 °F 94% 30.10 in 10.0 mi NE 3.5 mph - N/A   Scattered Clouds
3:53 AM 77.0 °F - 72.0 °F 84% 30.08 in 10.0 mi Calm Calm - 0.00 in   Scattered Clouds
4:53 AM 75.9 °F - 72.0 °F 87% 30.07 in 10.0 mi Calm Calm - N/A   Partly Cloudy
5:53 AM 75.9 °F - 73.0 °F 91% 30.08 in 10.0 mi Calm Calm - N/A   Partly Cloudy
6:53 AM 75.0 °F - 73.0 °F 94% 30.09 in 10.0 mi NW 3.5 mph - N/A   Partly Cloudy
7:53 AM 78.1 °F - 73.9 °F 87% 30.11 in 10.0 mi NW 3.5 mph - N/A   Scattered Clouds
8:53 AM 80.1 °F 84.5 °F 73.9 °F 81% 30.11 in 10.0 mi Calm Calm - N/A   Mostly Cloudy
9:11 AM 78.8 °F - 71.6 °F 78% 30.12 in 10.0 mi SE 6.9 mph - N/A   Mostly Cloudy
9:53 AM 79.0 °F - 72.0 °F 79% 30.13 in 10.0 mi South 4.6 mph - 0.00 in   Mostly Cloudy
10:29 AM 78.8 °F - 71.6 °F 78% 30.14 in 1.2 mi East 9.2 mph 23.0 mph 0.11 in Rain Light Rain
10:30 AM 78.8 °F - 71.6 °F 78% 30.14 in 4.0 mi Variable 4.6 mph 23.0 mph 0.13 in Rain Light Rain
10:44 AM 77.0 °F - 73.4 °F 89% 30.14 in 7.0 mi Calm Calm - 0.17 in Rain Light Rain
10:53 AM 79.0 °F - 75.0 °F 88% 30.14 in 10.0 mi Calm Calm - 0.17 in   Mostly Cloudy
11:53 AM 84.0 °F 89.6 °F 72.0 °F 67% 30.14 in 10.0 mi East 8.1 mph - 0.00 in   Scattered Clouds
12:53 PM 82.9 °F 87.5 °F 71.1 °F 67% 30.12 in 10.0 mi East 8.1 mph - N/A   Scattered Clouds
1:53 PM 84.0 °F 88.4 °F 70.0 °F 63% 30.12 in 10.0 mi East 10.4 mph - N/A   Mostly Cloudy
2:53 PM 80.1 °F 83.8 °F 72.0 °F 76% 30.11 in 8.0 mi ENE 11.5 mph 20.7 mph 0.00 in Rain Light Rain
3:53 PM 81.0 °F 84.1 °F 69.1 °F 67% 30.09 in 10.0 mi NE 5.8 mph - 0.00 in   Mostly Cloudy
4:53 PM 84.0 °F 87.8 °F 69.1 °F 61% 30.07 in 10.0 mi ENE 10.4 mph - 0.00 in   Scattered Clouds
5:53 PM 82.9 °F 87.5 °F 71.1 °F 67% 30.06 in 10.0 mi ENE 11.5 mph - N/A   Scattered Clouds
6:53 PM 82.0 °F 86.7 °F 72.0 °F 71% 30.06 in 10.0 mi East 8.1 mph - N/A   Mostly Cloudy
7:53 PM 80.1 °F 83.2 °F 70.0 °F 71% 30.06 in 10.0 mi East 9.2 mph - N/A   Scattered Clouds
8:53 PM 80.1 °F 83.2 °F 70.0 °F 71% 30.06 in 10.0 mi East 9.2 mph - N/A   Scattered Clouds
9:53 PM 80.1 °F 83.2 °F 70.0 °F 71% 30.08 in 10.0 mi East 8.1 mph - N/A   Scattered Clouds
10:53 PM 80.1 °F 83.6 °F 71.1 °F 74% 30.08 in 10.0 mi East 10.4 mph 17.3 mph N/A   Mostly Cloudy
11:53 PM 78.1 °F - 71.1 °F 79% 30.08 in 10.0 mi Calm Calm - N/A   Scattered Clouds